Time,TemperatureF,DewpointF,PressureIn,WindDirection,WindDirectionDegrees,WindSpeedMPH,WindSpeedGustMPH,Humidity,HourlyPrecipIn,Conditions,Clouds,dailyrainin,SoftwareType,DateUTC
2013-06-02 00:02:00,55.8,46.6,30.01,West,270,2.0,3.0,71,0.00,,,0.00,meteohub,2013-06-02 07:02:00,
2013-06-02 00:07:00,55.4,46.2,30.01,West,270,1.0,3.0,71,0.00,,,0.00,meteohub,2013-06-02 07:07:00,
2013-06-02 00:12:00,55.0,45.9,30.01,North,0,2.0,2.0,71,0.00,,,0.00,meteohub,2013-06-02 07:12:00,
2013-06-02 00:17:00,54.7,45.9,30.01,West,270,2.0,2.0,72,0.00,,,0.00,meteohub,2013-06-02 07:17:00,
2013-06-02 00:22:00,54.5,46.0,30.01,South,180,2.0,2.0,73,0.00,,,0.00,meteohub,2013-06-02 07:22:00,
2013-06-02 00:27:00,54.3,45.9,30.01,NE,45,2.0,2.0,73,0.00,,,0.00,meteohub,2013-06-02 07:27:00,
2013-06-02 00:32:00,54.0,45.9,30.01,East,90,3.0,3.0,74,0.00,,,0.00,meteohub,2013-06-02 07:32:00,
2013-06-02 00:37:00,53.8,45.7,30.01,North,0,2.0,3.0,74,0.00,,,0.00,meteohub,2013-06-02 07:37:00,
2013-06-02 00:42:00,53.6,45.9,30.01,NW,315,3.0,3.0,75,0.00,,,0.00,meteohub,2013-06-02 07:42:00,
2013-06-02 00:47:00,53.6,46.2,30.01,East,90,1.0,3.0,76,0.00,,,0.00,meteohub,2013-06-02 07:47:00,
2013-06-02 00:52:00,53.4,46.0,30.01,North,0,2.0,3.0,76,0.00,,,0.00,meteohub,2013-06-02 07:52:00,
2013-06-02 00:57:00,53.2,45.9,30.01,East,90,0.0,3.0,76,0.00,,,0.00,meteohub,2013-06-02 07:57:00,
2013-06-02 01:02:00,52.9,45.5,30.01,NW,315,2.0,2.0,76,0.00,,,0.00,meteohub,2013-06-02 08:02:00,
2013-06-02 01:07:00,52.9,45.9,30.01,NW,315,0.0,2.0,77,0.00,,,0.00,meteohub,2013-06-02 08:07:00,
2013-06-02 01:12:00,52.7,45.7,30.01,NW,315,1.0,2.0,77,0.00,,,0.00,meteohub,2013-06-02 08:12:00,
2013-06-02 01:17:00,52.5,45.5,30.00,SW,225,2.0,2.0,77,0.00,,,0.00,meteohub,2013-06-02 08:17:00,
2013-06-02 01:22:00,52.3,45.7,30.00,SW,225,1.0,2.0,78,0.00,,,0.00,meteohub,2013-06-02 08:22:00,
2013-06-02 01:27:00,52.2,45.5,30.00,SW,225,0.0,2.0,78,0.00,,,0.00,meteohub,2013-06-02 08:27:00,
2013-06-02 01:32:00,52.0,45.7,30.00,SW,225,2.0,2.0,79,0.00,,,0.00,meteohub,2013-06-02 08:32:00,
2013-06-02 01:37:00,51.8,45.5,30.00,SW,225,2.0,2.0,79,0.00,,,0.00,meteohub,2013-06-02 08:37:00,
2013-06-02 01:42:00,51.4,45.5,30.00,SW,225,0.0,2.0,80,0.00,,,0.00,meteohub,2013-06-02 08:42:00,
2013-06-02 01:47:00,51.3,45.3,29.99,SW,225,1.0,2.0,80,0.00,,,0.00,meteohub,2013-06-02 08:47:00,
2013-06-02 01:52:00,51.1,45.5,30.00,SW,225,2.0,2.0,81,0.00,,,0.00,meteohub,2013-06-02 08:52:00,
2013-06-02 01:57:00,50.9,45.3,29.99,SW,225,1.0,2.0,81,0.00,,,0.00,meteohub,2013-06-02 08:57:00,
2013-06-02 02:02:00,50.7,45.1,29.99,SW,225,1.0,2.0,81,0.00,,,0.00,meteohub,2013-06-02 09:02:00,
2013-06-02 02:07:00,50.4,44.8,29.99,SW,225,0.0,2.0,81,0.00,,,0.00,meteohub,2013-06-02 09:07:00,
2013-06-02 02:12:00,50.2,44.6,29.99,SE,135,0.0,1.0,81,0.00,,,0.00,meteohub,2013-06-02 09:12:00,
2013-06-02 02:17:00,49.8,44.8,29.99,South,180,1.0,1.0,83,0.00,,,0.00,meteohub,2013-06-02 09:17:00,
2013-06-02 02:22:00,49.5,44.6,30.00,SW,225,1.0,2.0,83,0.00,,,0.00,meteohub,2013-06-02 09:22:00,
2013-06-02 02:27:00,49.5,44.6,29.99,SW,225,0.0,2.0,83,0.00,,,0.00,meteohub,2013-06-02 09:27:00,
2013-06-02 02:32:00,49.5,44.8,29.99,SW,225,1.0,2.0,84,0.00,,,0.00,meteohub,2013-06-02 09:32:00,
2013-06-02 02:37:00,49.5,44.8,29.99,SW,225,1.0,2.0,84,0.00,,,0.00,meteohub,2013-06-02 09:37:00,
2013-06-02 02:42:00,49.3,44.6,29.99,SW,225,1.0,1.0,84,0.00,,,0.00,meteohub,2013-06-02 09:42:00,
2013-06-02 02:47:00,49.1,44.8,29.99,SW,225,0.0,1.0,85,0.00,,,0.00,meteohub,2013-06-02 09:47:00,
2013-06-02 02:52:00,48.9,44.6,29.99,SW,225,0.0,2.0,85,0.00,,,0.00,meteohub,2013-06-02 09:52:00,
2013-06-02 02:57:00,48.7,44.4,29.99,East,90,0.0,2.0,85,0.00,,,0.00,meteohub,2013-06-02 09:57:00,
2013-06-02 03:02:00,48.6,44.2,29.99,South,180,1.0,1.0,85,0.00,,,0.00,meteohub,2013-06-02 10:02:00,
2013-06-02 03:07:00,48.2,43.9,29.99,South,180,2.0,2.0,85,0.00,,,0.00,meteohub,2013-06-02 10:07:00,
2013-06-02 03:12:00,48.0,44.4,29.99,SW,225,2.0,2.0,87,0.00,,,0.00,meteohub,2013-06-02 10:12:00,
2013-06-02 03:17:00,47.8,44.2,29.99,SW,225,2.0,2.0,87,0.00,,,0.00,meteohub,2013-06-02 10:17:00,
2013-06-02 03:22:00,48.0,44.6,29.99,SW,225,0.0,2.0,88,0.00,,,0.00,meteohub,2013-06-02 10:22:00,
2013-06-02 03:27:00,48.0,44.6,29.98,SW,225,0.0,2.0,88,0.00,,,0.00,meteohub,2013-06-02 10:27:00,
2013-06-02 03:32:00,47.8,44.4,29.99,SW,225,0.0,2.0,88,0.00,,,0.00,meteohub,2013-06-02 10:32:00,
2013-06-02 03:37:00,47.7,44.2,29.98,SW,225,0.0,1.0,88,0.00,,,0.00,meteohub,2013-06-02 10:37:00,
2013-06-02 03:42:00,47.5,44.1,29.98,SW,225,0.0,1.0,88,0.00,,,0.00,meteohub,2013-06-02 10:42:00,
2013-06-02 03:47:00,47.3,43.9,29.99,SW,225,0.0,1.0,88,0.00,,,0.00,meteohub,2013-06-02 10:47:00,
2013-06-02 03:52:00,47.1,43.7,29.99,SW,225,1.0,0.0,88,0.00,,,0.00,meteohub,2013-06-02 10:52:00,
2013-06-02 03:57:00,47.1,44.1,29.98,SW,225,0.0,1.0,89,0.00,,,0.00,meteohub,2013-06-02 10:57:00,
2013-06-02 04:02:00,46.9,43.9,29.98,SW,225,0.0,1.0,89,0.00,,,0.00,meteohub,2013-06-02 11:02:00,
2013-06-02 04:07:00,46.8,43.7,29.98,SW,225,1.0,1.0,89,0.00,,,0.00,meteohub,2013-06-02 11:07:00,
2013-06-02 04:12:00,46.6,43.9,29.98,SW,225,2.0,2.0,90,0.00,,,0.00,meteohub,2013-06-02 11:12:00,
2013-06-02 04:17:00,46.6,43.9,29.98,SW,225,1.0,2.0,90,0.00,,,0.00,meteohub,2013-06-02 11:17:00,
2013-06-02 04:22:00,46.4,43.7,29.98,SW,225,0.0,2.0,90,0.00,,,0.00,meteohub,2013-06-02 11:22:00,
2013-06-02 04:27:00,46.4,43.7,29.98,SW,225,1.0,2.0,90,0.00,,,0.00,meteohub,2013-06-02 11:27:00,
2013-06-02 04:32:00,46.2,43.7,29.98,SW,225,2.0,2.0,91,0.00,,,0.00,meteohub,2013-06-02 11:32:00,
2013-06-02 04:37:00,46.2,43.7,29.98,SW,225,0.0,2.0,91,0.00,,,0.00,meteohub,2013-06-02 11:37:00,
2013-06-02 04:42:00,46.0,43.5,29.98,SW,225,0.0,2.0,91,0.00,,,0.00,meteohub,2013-06-02 11:42:00,
2013-06-02 04:47:00,46.0,43.9,29.98,SW,225,0.0,2.0,92,0.00,,,0.00,meteohub,2013-06-02 11:47:00,
2013-06-02 04:52:00,46.0,43.9,29.98,SW,225,1.0,1.0,92,0.00,,,0.00,meteohub,2013-06-02 11:52:00,
2013-06-02 04:57:00,46.2,44.1,29.98,SW,225,0.0,2.0,92,0.00,,,0.00,meteohub,2013-06-02 11:57:00,
2013-06-02 05:02:00,46.2,44.1,29.98,SW,225,1.0,2.0,92,0.00,,,0.00,meteohub,2013-06-02 12:02:00,
2013-06-02 05:07:00,46.4,44.2,29.98,SW,225,1.0,1.0,92,0.00,,,0.00,meteohub,2013-06-02 12:07:00,
2013-06-02 05:12:00,46.6,44.6,29.98,SW,225,1.0,2.0,93,0.00,,,0.00,meteohub,2013-06-02 12:12:00,
2013-06-02 05:17:00,46.6,44.6,29.98,SW,225,0.0,2.0,93,0.00,,,0.00,meteohub,2013-06-02 12:17:00,
2013-06-02 05:22:00,46.6,44.6,29.99,NE,45,1.0,2.0,93,0.00,,,0.00,meteohub,2013-06-02 12:22:00,
2013-06-02 05:27:00,46.6,44.4,29.98,NE,45,1.0,2.0,92,0.00,,,0.00,meteohub,2013-06-02 12:27:00,
2013-06-02 05:32:00,46.6,44.6,29.98,NE,45,1.0,2.0,93,0.00,,,0.00,meteohub,2013-06-02 12:32:00,
2013-06-02 05:37:00,46.8,44.6,29.99,East,90,1.0,2.0,92,0.00,,,0.00,meteohub,2013-06-02 12:37:00,
2013-06-02 05:42:00,46.8,44.6,29.99,NE,45,1.0,2.0,92,0.00,,,0.00,meteohub,2013-06-02 12:42:00,
2013-06-02 05:47:00,46.9,44.8,29.99,East,90,2.0,2.0,92,0.00,,,0.00,meteohub,2013-06-02 12:47:00,
2013-06-02 05:52:00,46.9,44.8,29.99,East,90,0.0,2.0,92,0.00,,,0.00,meteohub,2013-06-02 12:52:00,
2013-06-02 05:57:00,47.3,45.1,29.99,East,90,0.0,2.0,92,0.00,,,0.00,meteohub,2013-06-02 12:57:00,
2013-06-02 06:02:00,47.7,45.1,29.99,East,90,2.0,2.0,91,0.00,,,0.00,meteohub,2013-06-02 13:02:00,
2013-06-02 06:07:00,48.2,45.3,29.99,SW,225,2.0,2.0,90,0.00,,,0.00,meteohub,2013-06-02 13:07:00,
2013-06-02 06:12:00,48.4,45.3,29.99,South,180,2.0,2.0,89,0.00,,,0.00,meteohub,2013-06-02 13:12:00,
2013-06-02 06:17:00,48.4,44.8,29.99,East,90,2.0,2.0,87,0.00,,,0.00,meteohub,2013-06-02 13:17:00,
2013-06-02 06:22:00,48.9,45.1,29.99,SW,225,2.0,2.0,87,0.00,,,0.00,meteohub,2013-06-02 13:22:00,
2013-06-02 06:27:00,48.9,45.0,29.99,West,270,1.0,2.0,86,0.00,,,0.00,meteohub,2013-06-02 13:27:00,
2013-06-02 06:32:00,49.1,44.8,29.99,SW,225,2.0,2.0,85,0.00,,,0.00,meteohub,2013-06-02 13:32:00,
2013-06-02 06:37:00,49.1,44.8,29.99,East,90,2.0,3.0,85,0.00,,,0.00,meteohub,2013-06-02 13:37:00,
2013-06-02 06:42:00,49.5,45.1,29.99,East,90,2.0,3.0,85,0.00,,,0.00,meteohub,2013-06-02 13:42:00,
2013-06-02 06:47:00,50.2,45.5,30.00,SW,225,2.0,3.0,84,0.00,,,0.00,meteohub,2013-06-02 13:47:00,
2013-06-02 06:52:00,50.5,45.5,30.00,NE,45,1.0,2.0,83,0.00,,,0.00,meteohub,2013-06-02 13:52:00,
2013-06-02 06:57:00,51.4,46.4,29.99,East,90,2.0,2.0,83,0.00,,,0.00,meteohub,2013-06-02 13:57:00,
2013-06-02 07:02:00,52.0,46.4,29.99,East,90,2.0,3.0,81,0.00,,,0.00,meteohub,2013-06-02 14:02:00,
2013-06-02 07:07:00,52.3,46.8,29.99,West,270,1.0,3.0,81,0.00,,,0.00,meteohub,2013-06-02 14:07:00,
2013-06-02 07:12:00,52.9,47.3,29.99,NE,45,2.0,3.0,81,0.00,,,0.00,meteohub,2013-06-02 14:12:00,
2013-06-02 07:17:00,53.4,47.5,29.99,SE,135,2.0,3.0,80,0.00,,,0.00,meteohub,2013-06-02 14:17:00,
2013-06-02 07:22:00,54.1,47.8,29.99,East,90,2.0,3.0,79,0.00,,,0.00,meteohub,2013-06-02 14:22:00,
2013-06-02 07:27:00,54.5,47.8,29.99,SE,135,3.0,3.0,78,0.00,,,0.00,meteohub,2013-06-02 14:27:00,
2013-06-02 07:32:00,55.0,48.4,29.99,NE,45,2.0,4.0,78,0.00,,,0.00,meteohub,2013-06-02 14:32:00,
2013-06-02 07:37:00,55.6,48.2,29.99,ESE,113,3.0,4.0,76,0.00,,,0.00,meteohub,2013-06-02 14:37:00,
2013-06-02 07:42:00,55.9,48.2,29.99,NE,45,2.0,4.0,75,0.00,,,0.00,meteohub,2013-06-02 14:42:00,
2013-06-02 07:47:00,56.5,48.4,29.99,East,90,1.0,4.0,74,0.00,,,0.00,meteohub,2013-06-02 14:47:00,
2013-06-02 07:52:00,57.2,48.6,29.99,SW,225,2.0,4.0,73,0.00,,,0.00,meteohub,2013-06-02 14:52:00,
2013-06-02 07:57:00,57.6,48.9,29.99,West,270,2.0,4.0,73,0.00,,,0.00,meteohub,2013-06-02 14:57:00,
2013-06-02 08:02:00,57.6,48.2,29.99,East,90,4.0,4.0,71,0.00,,,0.00,meteohub,2013-06-02 15:02:00,
2013-06-02 08:07:00,58.3,49.3,29.99,East,90,3.0,4.0,72,0.00,,,0.00,meteohub,2013-06-02 15:07:00,
2013-06-02 08:12:00,58.8,49.5,29.99,SE,135,2.0,4.0,71,0.00,,,0.00,meteohub,2013-06-02 15:12:00,
2013-06-02 08:17:00,59.4,49.6,29.99,NE,45,2.0,4.0,70,0.00,,,0.00,meteohub,2013-06-02 15:17:00,
2013-06-02 08:22:00,59.9,49.3,29.99,South,180,2.0,4.0,68,0.00,,,0.00,meteohub,2013-06-02 15:22:00,
2013-06-02 08:27:00,60.1,48.7,29.99,NE,45,2.0,4.0,66,0.00,,,0.00,meteohub,2013-06-02 15:27:00,
2013-06-02 08:32:00,60.4,49.1,29.99,NE,45,2.0,4.0,66,0.00,,,0.00,meteohub,2013-06-02 15:32:00,
2013-06-02 08:37:00,60.8,48.6,29.99,SSE,158,2.0,3.0,64,0.00,,,0.00,meteohub,2013-06-02 15:37:00,
2013-06-02 08:42:00,60.8,47.7,29.99,North,0,3.0,3.0,62,0.00,,,0.00,meteohub,2013-06-02 15:42:00,
2013-06-02 08:47:00,61.7,48.2,29.99,West,270,3.0,3.0,61,0.00,,,0.00,meteohub,2013-06-02 15:47:00,
2013-06-02 08:52:00,62.1,47.5,29.99,NW,315,3.0,4.0,59,0.00,,,0.00,meteohub,2013-06-02 15:52:00,
2013-06-02 08:57:00,62.1,47.5,29.99,NE,45,5.0,8.0,59,0.00,,,0.00,meteohub,2013-06-02 15:57:00,
2013-06-02 09:02:00,62.4,46.6,29.99,SW,225,7.0,8.0,56,0.00,,,0.00,meteohub,2013-06-02 16:02:00,
2013-06-02 09:07:00,63.0,46.6,29.99,NE,45,4.0,8.0,55,0.00,,,0.00,meteohub,2013-06-02 16:07:00,
2013-06-02 09:12:00,63.0,45.1,29.99,East,90,3.0,8.0,52,0.00,,,0.00,meteohub,2013-06-02 16:12:00,
2013-06-02 09:17:00,62.2,45.0,29.99,South,180,2.0,7.0,53,0.00,,,0.00,meteohub,2013-06-02 16:17:00,
2013-06-02 09:22:00,60.8,44.1,29.98,NE,45,2.0,6.0,54,0.00,,,0.00,meteohub,2013-06-02 16:22:00,
2013-06-02 09:27:00,60.1,44.8,29.98,NW,315,4.0,6.0,57,0.00,,,0.00,meteohub,2013-06-02 16:27:00,
2013-06-02 09:32:00,60.3,45.0,29.98,NE,45,2.0,6.0,57,0.00,,,0.00,meteohub,2013-06-02 16:32:00,
2013-06-02 09:37:00,61.2,44.4,29.98,NW,315,5.0,5.0,54,0.00,,,0.00,meteohub,2013-06-02 16:37:00,
2013-06-02 09:42:00,61.5,44.2,29.98,East,90,4.0,6.0,53,0.00,,,0.00,meteohub,2013-06-02 16:42:00,
2013-06-02 09:47:00,62.6,44.8,29.98,SW,225,4.0,6.0,52,0.00,,,0.00,meteohub,2013-06-02 16:47:00,
2013-06-02 09:52:00,63.7,43.7,29.98,North,0,6.0,6.0,48,0.00,,,0.00,meteohub,2013-06-02 16:52:00,
2013-06-02 09:57:00,64.6,44.4,29.98,NW,315,8.0,8.0,48,0.00,,,0.00,meteohub,2013-06-02 16:57:00,
2013-06-02 10:02:00,63.5,44.1,29.98,East,90,2.0,8.0,49,0.00,,,0.00,meteohub,2013-06-02 17:02:00,
2013-06-02 10:07:00,64.0,44.4,29.98,SE,135,2.0,8.0,49,0.00,,,0.00,meteohub,2013-06-02 17:07:00,
2013-06-02 10:12:00,64.2,44.6,29.98,NW,315,2.0,8.0,49,0.00,,,0.00,meteohub,2013-06-02 17:12:00,
2013-06-02 10:17:00,63.7,44.2,29.98,South,180,2.0,7.0,49,0.00,,,0.00,meteohub,2013-06-02 17:17:00,
2013-06-02 10:22:00,63.5,44.6,29.98,North,0,2.0,7.0,50,0.00,,,0.00,meteohub,2013-06-02 17:22:00,
2013-06-02 10:27:00,63.5,44.1,29.98,South,180,2.0,6.0,49,0.00,,,0.00,meteohub,2013-06-02 17:27:00,
2013-06-02 10:32:00,63.7,44.2,29.98,NW,315,4.0,6.0,49,0.00,,,0.00,meteohub,2013-06-02 17:32:00,
2013-06-02 10:37:00,63.5,44.1,29.98,West,270,4.0,5.0,49,0.00,,,0.00,meteohub,2013-06-02 17:37:00,
2013-06-02 10:42:00,64.6,44.4,29.98,NE,45,7.0,8.0,48,0.00,,,0.00,meteohub,2013-06-02 17:42:00,
2013-06-02 10:47:00,65.5,43.5,29.98,NE,45,3.0,8.0,45,0.00,,,0.00,meteohub,2013-06-02 17:47:00,
2013-06-02 10:52:00,66.0,44.1,29.98,North,0,14.0,14.0,45,0.00,,,0.00,meteohub,2013-06-02 17:52:00,
2013-06-02 10:57:00,66.6,43.3,29.98,NE,45,5.0,14.0,43,0.00,,,0.00,meteohub,2013-06-02 17:57:00,
2013-06-02 11:02:00,67.3,43.3,29.98,North,0,11.0,14.0,42,0.00,,,0.00,meteohub,2013-06-02 18:02:00,
2013-06-02 11:07:00,67.1,43.2,29.98,North,0,7.0,14.0,42,0.00,,,0.00,meteohub,2013-06-02 18:07:00,
2013-06-02 11:12:00,65.7,41.9,29.99,NW,315,8.0,11.0,42,0.00,,,0.00,meteohub,2013-06-02 18:12:00,
2013-06-02 11:17:00,64.8,42.3,29.98,North,0,9.0,14.0,44,0.00,,,0.00,meteohub,2013-06-02 18:17:00,
2013-06-02 11:22:00,66.2,42.4,29.98,North,0,7.0,14.0,42,0.00,,,0.00,meteohub,2013-06-02 18:22:00,
2013-06-02 11:27:00,67.5,43.0,29.97,NE,45,9.0,14.0,41,0.00,,,0.00,meteohub,2013-06-02 18:27:00,
2013-06-02 11:32:00,66.6,42.1,29.98,NE,45,11.0,11.0,41,0.00,,,0.00,meteohub,2013-06-02 18:32:00,
2013-06-02 11:37:00,65.5,41.7,29.97,North,0,6.0,12.0,42,0.00,,,0.00,meteohub,2013-06-02 18:37:00,
2013-06-02 11:42:00,66.7,43.0,29.97,East,90,7.0,12.0,42,0.00,,,0.00,meteohub,2013-06-02 18:42:00,
2013-06-02 11:47:00,67.6,41.7,29.98,North,0,5.0,12.0,39,0.00,,,0.00,meteohub,2013-06-02 18:47:00,
2013-06-02 11:52:00,67.6,42.4,29.97,NW,315,8.0,12.0,40,0.00,,,0.00,meteohub,2013-06-02 18:52:00,
2013-06-02 11:57:00,67.8,41.4,29.97,NW,315,9.0,11.0,38,0.00,,,0.00,meteohub,2013-06-02 18:57:00,
2013-06-02 12:02:00,68.0,41.4,29.97,NE,45,12.0,12.0,38,0.00,,,0.00,meteohub,2013-06-02 19:02:00,
2013-06-02 12:07:00,68.0,40.8,29.97,NNE,23,8.0,12.0,37,0.00,,,0.00,meteohub,2013-06-02 19:07:00,
2013-06-02 12:12:00,69.1,42.4,29.97,NE,45,8.0,12.0,38,0.00,,,0.00,meteohub,2013-06-02 19:12:00,
2013-06-02 12:17:00,69.8,41.0,29.97,NW,315,4.0,12.0,35,0.00,,,0.00,meteohub,2013-06-02 19:17:00,
2013-06-02 12:22:00,70.3,40.6,29.97,North,0,6.0,9.0,34,0.00,,,0.00,meteohub,2013-06-02 19:22:00,
2013-06-02 12:27:00,70.5,40.1,29.96,North,0,10.0,10.0,33,0.00,,,0.00,meteohub,2013-06-02 19:27:00,
2013-06-02 12:32:00,70.2,40.5,29.96,North,0,9.0,14.0,34,0.00,,,0.00,meteohub,2013-06-02 19:32:00,
2013-06-02 12:37:00,70.3,39.9,29.96,NW,315,3.0,14.0,33,0.00,,,0.00,meteohub,2013-06-02 19:37:00,
2013-06-02 12:42:00,70.7,40.1,29.97,NNE,23,5.0,14.0,33,0.00,,,0.00,meteohub,2013-06-02 19:42:00,
2013-06-02 12:47:00,71.1,39.7,29.96,North,0,4.0,10.0,32,0.00,,,0.00,meteohub,2013-06-02 19:47:00,
2013-06-02 12:52:00,71.1,38.8,29.96,ENE,68,6.0,9.0,31,0.00,,,0.00,meteohub,2013-06-02 19:52:00,
2013-06-02 12:57:00,71.2,39.9,29.96,NE,45,5.0,9.0,32,0.00,,,0.00,meteohub,2013-06-02 19:57:00,
2013-06-02 13:02:00,72.0,37.9,29.96,NE,45,8.0,9.0,29,0.00,,,0.00,meteohub,2013-06-02 20:02:00,
2013-06-02 13:07:00,71.8,37.8,29.96,NW,315,4.0,10.0,29,0.00,,,0.00,meteohub,2013-06-02 20:07:00,
2013-06-02 13:12:00,70.9,37.0,29.96,NW,315,5.0,10.0,29,0.00,,,0.00,meteohub,2013-06-02 20:12:00,
2013-06-02 13:17:00,71.2,38.3,29.96,NW,315,2.0,10.0,30,0.00,,,0.00,meteohub,2013-06-02 20:17:00,
2013-06-02 13:22:00,70.9,37.9,29.96,NW,315,6.0,10.0,30,0.00,,,0.00,meteohub,2013-06-02 20:22:00,
2013-06-02 13:27:00,71.2,38.3,29.96,SW,225,2.0,10.0,30,0.00,,,0.00,meteohub,2013-06-02 20:27:00,
2013-06-02 13:32:00,71.8,37.8,29.95,WSW,248,3.0,8.0,29,0.00,,,0.00,meteohub,2013-06-02 20:32:00,
2013-06-02 13:37:00,72.1,37.2,29.95,NE,45,9.0,9.0,28,0.00,,,0.00,meteohub,2013-06-02 20:37:00,
2013-06-02 13:42:00,71.8,36.9,29.95,NE,45,6.0,11.0,28,0.00,,,0.00,meteohub,2013-06-02 20:42:00,
2013-06-02 13:47:00,72.7,36.9,29.95,NW,315,11.0,12.0,27,0.00,,,0.00,meteohub,2013-06-02 20:47:00,
2013-06-02 13:52:00,72.1,36.3,29.95,NE,45,4.0,12.0,27,0.00,,,0.00,meteohub,2013-06-02 20:52:00,
2013-06-02 13:57:00,72.7,35.8,29.95,NE,45,7.0,12.0,26,0.00,,,0.00,meteohub,2013-06-02 20:57:00,
2013-06-02 14:02:00,73.0,36.1,29.95,North,0,4.0,11.0,26,0.00,,,0.00,meteohub,2013-06-02 21:02:00,
2013-06-02 14:07:00,72.7,33.8,29.95,NW,315,7.0,10.0,24,0.00,,,0.00,meteohub,2013-06-02 21:07:00,
2013-06-02 14:12:00,72.5,34.7,29.95,NE,45,9.0,12.0,25,0.00,,,0.00,meteohub,2013-06-02 21:12:00,
2013-06-02 14:17:00,72.1,35.4,29.95,North,0,6.0,12.0,26,0.00,,,0.00,meteohub,2013-06-02 21:17:00,
2013-06-02 14:22:00,72.3,34.5,29.95,NE,45,6.0,12.0,25,0.00,,,0.00,meteohub,2013-06-02 21:22:00,
2013-06-02 14:27:00,72.9,32.9,29.95,North,0,7.0,10.0,23,0.00,,,0.00,meteohub,2013-06-02 21:27:00,
2013-06-02 14:32:00,73.2,33.3,29.94,East,90,2.0,10.0,23,0.00,,,0.00,meteohub,2013-06-02 21:32:00,
2013-06-02 14:37:00,73.9,34.9,29.94,NW,315,9.0,10.0,24,0.00,,,0.00,meteohub,2013-06-02 21:37:00,
2013-06-02 14:42:00,73.9,33.8,29.94,ENE,68,7.0,10.0,23,0.00,,,0.00,meteohub,2013-06-02 21:42:00,
2013-06-02 14:47:00,73.0,32.0,29.94,SW,225,4.0,10.0,22,0.00,,,0.00,meteohub,2013-06-02 21:47:00,
2013-06-02 14:52:00,73.2,32.2,29.94,NE,45,9.0,10.0,22,0.00,,,0.00,meteohub,2013-06-02 21:52:00,
2013-06-02 14:57:00,73.0,30.7,29.94,North,0,8.0,12.0,21,0.00,,,0.00,meteohub,2013-06-02 21:57:00,
2013-06-02 15:02:00,72.7,30.6,29.94,South,180,5.0,13.0,21,0.00,,,0.00,meteohub,2013-06-02 22:02:00,
2013-06-02 15:07:00,73.2,30.9,29.94,NE,45,15.0,17.0,21,0.00,,,0.00,meteohub,2013-06-02 22:07:00,
2013-06-02 15:12:00,73.4,34.3,29.94,NE,45,7.0,17.0,24,0.00,,,0.00,meteohub,2013-06-02 22:12:00,
2013-06-02 15:17:00,73.9,33.8,29.94,WNW,293,12.0,15.0,23,0.00,,,0.00,meteohub,2013-06-02 22:17:00,
2013-06-02 15:22:00,73.6,33.4,29.94,North,0,8.0,18.0,23,0.00,,,0.00,meteohub,2013-06-02 22:22:00,
2013-06-02 15:27:00,72.9,29.5,29.94,South,180,10.0,18.0,20,0.00,,,0.00,meteohub,2013-06-02 22:27:00,
2013-06-02 15:32:00,73.4,34.3,29.94,NW,315,8.0,18.0,24,0.00,,,0.00,meteohub,2013-06-02 22:32:00,
2013-06-02 15:37:00,73.6,33.4,29.94,NE,45,6.0,14.0,23,0.00,,,0.00,meteohub,2013-06-02 22:37:00,
2013-06-02 15:42:00,73.2,30.9,29.94,NW,315,9.0,11.0,21,0.00,,,0.00,meteohub,2013-06-02 22:42:00,
2013-06-02 15:47:00,73.2,29.7,29.94,North,0,11.0,11.0,20,0.00,,,0.00,meteohub,2013-06-02 22:47:00,
2013-06-02 15:52:00,72.7,29.3,29.94,NE,45,9.0,16.0,20,0.00,,,0.00,meteohub,2013-06-02 22:52:00,
2013-06-02 15:57:00,72.5,30.4,29.94,North,0,11.0,16.0,21,0.00,,,0.00,meteohub,2013-06-02 22:57:00,
2013-06-02 16:02:00,72.5,31.5,29.94,NE,45,6.0,16.0,22,0.00,,,0.00,meteohub,2013-06-02 23:02:00,
2013-06-02 16:07:00,72.7,31.6,29.95,NW,315,6.0,15.0,22,0.00,,,0.00,meteohub,2013-06-02 23:07:00,
2013-06-02 16:12:00,72.9,30.6,29.94,NW,315,13.0,15.0,21,0.00,,,0.00,meteohub,2013-06-02 23:12:00,
2013-06-02 16:17:00,72.9,30.6,29.94,North,0,9.0,15.0,21,0.00,,,0.00,meteohub,2013-06-02 23:17:00,
2013-06-02 16:22:00,72.1,30.0,29.94,North,0,11.0,15.0,21,0.00,,,0.00,meteohub,2013-06-02 23:22:00,
2013-06-02 16:27:00,72.3,31.3,29.95,NW,315,6.0,15.0,22,0.00,,,0.00,meteohub,2013-06-02 23:27:00,
2013-06-02 16:32:00,72.7,31.6,29.94,NNE,23,5.0,15.0,22,0.00,,,0.00,meteohub,2013-06-02 23:32:00,
2013-06-02 16:37:00,72.9,29.5,29.95,North,0,11.0,15.0,20,0.00,,,0.00,meteohub,2013-06-02 23:37:00,
2013-06-02 16:42:00,72.5,27.9,29.94,North,0,8.0,14.0,19,0.00,,,0.00,meteohub,2013-06-02 23:42:00,
2013-06-02 16:47:00,72.7,28.0,29.94,NNE,23,8.0,14.0,19,0.00,,,0.00,meteohub,2013-06-02 23:47:00,
2013-06-02 16:52:00,71.8,27.3,29.94,NW,315,8.0,14.0,19,0.00,,,0.00,meteohub,2013-06-02 23:52:00,
2013-06-02 16:57:00,71.6,27.1,29.94,NE,45,11.0,14.0,19,0.00,,,0.00,meteohub,2013-06-02 23:57:00,
2013-06-02 17:02:00,71.6,27.1,29.94,NW,315,13.0,14.0,19,0.00,,,0.00,meteohub,2013-06-03 00:02:00,
2013-06-02 17:07:00,71.8,28.6,29.94,North,0,14.0,14.0,20,0.00,,,0.00,meteohub,2013-06-03 00:07:00,
2013-06-02 17:12:00,71.6,27.1,29.94,NW,315,10.0,14.0,19,0.00,,,0.00,meteohub,2013-06-03 00:12:00,
2013-06-02 17:17:00,71.6,27.1,29.94,NE,45,6.0,14.0,19,0.00,,,0.00,meteohub,2013-06-03 00:17:00,
2013-06-02 17:22:00,71.4,28.2,29.94,North,0,7.0,14.0,20,0.00,,,0.00,meteohub,2013-06-03 00:22:00,
2013-06-02 17:27:00,71.2,28.0,29.94,North,0,15.0,15.0,20,0.00,,,0.00,meteohub,2013-06-03 00:27:00,
2013-06-02 17:32:00,71.1,28.0,29.94,NE,45,8.0,15.0,20,0.00,,,0.00,meteohub,2013-06-03 00:32:00,
2013-06-02 17:37:00,70.7,28.8,29.94,North,0,9.0,15.0,21,0.00,,,0.00,meteohub,2013-06-03 00:37:00,
2013-06-02 17:42:00,70.3,27.3,29.94,North,0,8.0,15.0,20,0.00,,,0.00,meteohub,2013-06-03 00:42:00,
2013-06-02 17:47:00,70.3,29.7,29.94,NW,315,8.0,14.0,22,0.00,,,0.00,meteohub,2013-06-03 00:47:00,
2013-06-02 17:52:00,70.3,30.7,29.94,North,0,6.0,13.0,23,0.00,,,0.00,meteohub,2013-06-03 00:52:00,
2013-06-02 17:57:00,69.8,30.4,29.94,NE,45,8.0,13.0,23,0.00,,,0.00,meteohub,2013-06-03 00:57:00,
2013-06-02 18:02:00,69.8,34.3,29.94,NW,315,8.0,12.0,27,0.00,,,0.00,meteohub,2013-06-03 01:02:00,
2013-06-02 18:07:00,69.4,36.7,29.95,North,0,7.0,12.0,30,0.00,,,0.00,meteohub,2013-06-03 01:07:00,
2013-06-02 18:12:00,69.1,37.2,29.94,North,0,8.0,14.0,31,0.00,,,0.00,meteohub,2013-06-03 01:12:00,
2013-06-02 18:17:00,68.7,37.6,29.95,NW,315,10.0,14.0,32,0.00,,,0.00,meteohub,2013-06-03 01:17:00,
2013-06-02 18:22:00,68.0,38.7,29.96,North,0,13.0,14.0,34,0.00,,,0.00,meteohub,2013-06-03 01:22:00,
2013-06-02 18:27:00,67.1,39.2,29.95,North,0,9.0,17.0,36,0.00,,,0.00,meteohub,2013-06-03 01:27:00,
2013-06-02 18:32:00,66.6,40.1,29.95,North,0,8.0,17.0,38,0.00,,,0.00,meteohub,2013-06-03 01:32:00,
2013-06-02 18:37:00,66.2,39.9,29.96,NE,45,9.0,17.0,38,0.00,,,0.00,meteohub,2013-06-03 01:37:00,
2013-06-02 18:42:00,65.7,41.4,29.96,NW,315,8.0,16.0,41,0.00,,,0.00,meteohub,2013-06-03 01:42:00,
2013-06-02 18:47:00,65.3,41.0,29.96,NNE,23,7.0,15.0,41,0.00,,,0.00,meteohub,2013-06-03 01:47:00,
2013-06-02 18:52:00,64.9,41.4,29.96,NE,45,12.0,15.0,42,0.00,,,0.00,meteohub,2013-06-03 01:52:00,
2013-06-02 18:57:00,64.2,39.4,29.96,NE,45,9.0,15.0,40,0.00,,,0.00,meteohub,2013-06-03 01:57:00,
2013-06-02 19:02:00,63.9,39.7,29.96,North,0,9.0,15.0,41,0.00,,,0.00,meteohub,2013-06-03 02:02:00,
2013-06-02 19:07:00,63.5,39.4,29.97,NW,315,9.0,15.0,41,0.00,,,0.00,meteohub,2013-06-03 02:07:00,
2013-06-02 19:12:00,63.1,38.5,29.96,North,0,11.0,12.0,40,0.00,,,0.00,meteohub,2013-06-03 02:12:00,
2013-06-02 19:17:00,62.6,38.5,29.97,NW,315,11.0,14.0,41,0.00,,,0.00,meteohub,2013-06-03 02:17:00,
2013-06-02 19:22:00,62.2,38.8,29.98,North,0,9.0,15.0,42,0.00,,,0.00,meteohub,2013-06-03 02:22:00,
2013-06-02 19:27:00,61.9,38.5,29.98,NW,315,8.0,15.0,42,0.00,,,0.00,meteohub,2013-06-03 02:27:00,
2013-06-02 19:32:00,61.7,39.0,29.97,NE,45,12.0,15.0,43,0.00,,,0.00,meteohub,2013-06-03 02:32:00,
2013-06-02 19:37:00,61.3,38.7,29.97,NW,315,9.0,12.0,43,0.00,,,0.00,meteohub,2013-06-03 02:37:00,
2013-06-02 19:42:00,61.2,38.5,29.97,North,0,8.0,14.0,43,0.00,,,0.00,meteohub,2013-06-03 02:42:00,
2013-06-02 19:47:00,60.8,38.1,29.97,NW,315,8.0,14.0,43,0.00,,,0.00,meteohub,2013-06-03 02:47:00,
2013-06-02 19:52:00,60.6,38.7,29.97,North,0,9.0,14.0,44,0.00,,,0.00,meteohub,2013-06-03 02:52:00,
2013-06-02 19:57:00,60.4,39.0,29.98,North,0,10.0,14.0,45,0.00,,,0.00,meteohub,2013-06-03 02:57:00,
2013-06-02 20:02:00,60.1,38.7,29.98,West,270,9.0,12.0,45,0.00,,,0.00,meteohub,2013-06-03 03:02:00,
2013-06-02 20:07:00,59.9,39.0,29.98,North,0,7.0,11.0,46,0.00,,,0.00,meteohub,2013-06-03 03:07:00,
2013-06-02 20:12:00,59.5,38.7,29.98,North,0,5.0,11.0,46,0.00,,,0.00,meteohub,2013-06-03 03:12:00,
2013-06-02 20:17:00,59.4,38.7,29.98,NW,315,8.0,15.0,46,0.00,,,0.00,meteohub,2013-06-03 03:17:00,
2013-06-02 20:22:00,59.2,39.0,29.98,North,0,7.0,15.0,47,0.00,,,0.00,meteohub,2013-06-03 03:22:00,
2013-06-02 20:27:00,59.0,38.8,29.99,NW,315,8.0,15.0,47,0.00,,,0.00,meteohub,2013-06-03 03:27:00,
2013-06-02 20:32:00,58.8,39.7,29.99,NW,315,5.0,12.0,49,0.00,,,0.00,meteohub,2013-06-03 03:32:00,
2013-06-02 20:37:00,58.6,39.6,29.99,NE,45,4.0,12.0,49,0.00,,,0.00,meteohub,2013-06-03 03:37:00,
2013-06-02 20:43:00,58.1,39.0,29.99,North,0,8.0,10.0,49,0.00,,,0.00,meteohub,2013-06-03 03:43:00,
2013-06-02 20:49:00,57.7,38.7,29.99,NW,315,6.0,10.0,49,0.00,,,0.00,meteohub,2013-06-03 03:49:00,
2013-06-02 20:55:00,57.6,39.0,30.00,NW,315,4.0,11.0,50,0.00,,,0.00,meteohub,2013-06-03 03:55:00,
2013-06-02 21:01:00,57.4,38.8,29.99,South,180,3.0,11.0,50,0.00,,,0.00,meteohub,2013-06-03 04:01:00,
2013-06-02 21:02:00,57.2,38.7,30.00,WNW,293,4.0,11.0,50,0.00,,,0.00,meteohub,2013-06-03 04:02:00,
2013-06-02 21:03:00,57.2,38.7,30.00,NW,315,6.0,11.0,50,0.00,,,0.00,meteohub,2013-06-03 04:03:00,
2013-06-02 21:09:00,56.8,39.4,30.00,North,0,2.0,11.0,52,0.00,,,0.00,meteohub,2013-06-03 04:09:00,
2013-06-02 21:12:00,56.8,39.4,30.01,NE,45,6.0,10.0,52,0.00,,,0.00,meteohub,2013-06-03 04:12:00,
2013-06-02 21:17:00,56.5,39.0,30.01,SE,135,4.0,10.0,52,0.00,,,0.00,meteohub,2013-06-03 04:17:00,
2013-06-02 21:20:00,56.3,39.4,30.01,North,0,2.0,10.0,53,0.00,,,0.00,meteohub,2013-06-03 04:20:00,
2013-06-02 21:26:00,55.9,39.0,30.01,North,0,4.0,9.0,53,0.00,,,0.00,meteohub,2013-06-03 04:26:00,
2013-06-02 21:32:00,55.8,38.8,30.01,NE,45,2.0,6.0,53,0.00,,,0.00,meteohub,2013-06-03 04:32:00,
2013-06-02 21:37:00,55.4,39.0,30.01,North,0,3.0,6.0,54,0.00,,,0.00,meteohub,2013-06-03 04:37:00,
2013-06-02 21:42:00,55.0,39.2,30.01,North,0,3.0,4.0,55,0.00,,,0.00,meteohub,2013-06-03 04:42:00,
2013-06-02 21:48:00,54.7,38.8,30.01,NW,315,1.0,4.0,55,0.00,,,0.00,meteohub,2013-06-03 04:48:00,
2013-06-02 21:54:00,54.5,39.2,30.01,North,0,2.0,4.0,56,0.00,,,0.00,meteohub,2013-06-03 04:54:00,
2013-06-02 22:00:00,54.3,39.0,30.02,NE,45,2.0,3.0,56,0.00,,,0.00,meteohub,2013-06-03 05:00:00,
2013-06-02 22:06:00,54.0,38.7,30.02,North,0,1.0,3.0,56,0.00,,,0.00,meteohub,2013-06-03 05:06:00,
2013-06-02 22:12:00,53.8,39.4,30.02,North,0,2.0,3.0,58,0.00,,,0.00,meteohub,2013-06-03 05:12:00,
2013-06-02 22:17:00,53.8,39.4,30.03,North,0,1.0,4.0,58,0.00,,,0.00,meteohub,2013-06-03 05:17:00,
2013-06-02 22:22:00,53.6,39.2,30.03,NE,45,2.0,4.0,58,0.00,,,0.00,meteohub,2013-06-03 05:22:00,
2013-06-02 22:27:00,53.6,39.2,30.03,NE,45,2.0,4.0,58,0.00,,,0.00,meteohub,2013-06-03 05:27:00,
2013-06-02 22:32:00,53.2,39.2,30.03,NE,45,0.0,3.0,59,0.00,,,0.00,meteohub,2013-06-03 05:32:00,
2013-06-02 22:37:00,53.1,39.2,30.03,NW,315,2.0,3.0,59,0.00,,,0.00,meteohub,2013-06-03 05:37:00,
2013-06-02 22:42:00,52.7,39.2,30.03,North,0,2.0,2.0,60,0.00,,,0.00,meteohub,2013-06-03 05:42:00,
2013-06-02 22:47:00,52.7,39.6,30.03,North,0,1.0,2.0,61,0.00,,,0.00,meteohub,2013-06-03 05:47:00,
2013-06-02 22:52:00,52.7,39.6,30.03,NE,45,2.0,2.0,61,0.00,,,0.00,meteohub,2013-06-03 05:52:00,
2013-06-02 22:57:00,52.5,39.0,30.03,NE,45,0.0,2.0,60,0.00,,,0.00,meteohub,2013-06-03 05:57:00,
2013-06-02 23:02:00,52.2,38.7,30.03,NE,45,0.0,2.0,60,0.00,,,0.00,meteohub,2013-06-03 06:02:00,
2013-06-02 23:07:00,51.8,38.8,30.03,NE,45,0.0,2.0,61,0.00,,,0.00,meteohub,2013-06-03 06:07:00,
2013-06-02 23:13:00,51.4,39.2,30.02,North,0,2.0,3.0,63,0.00,,,0.00,meteohub,2013-06-03 06:13:00,
2013-06-02 23:19:00,51.6,39.9,30.03,North,0,1.0,3.0,64,0.00,,,0.00,meteohub,2013-06-03 06:19:00,
2013-06-02 23:25:00,51.4,39.2,30.03,East,90,2.0,2.0,63,0.00,,,0.00,meteohub,2013-06-03 06:25:00,
2013-06-02 23:31:00,51.3,39.0,30.03,East,90,0.0,2.0,63,0.00,,,0.00,meteohub,2013-06-03 06:31:00,
2013-06-02 23:37:00,51.1,39.4,30.04,NW,315,1.0,2.0,64,0.00,,,0.00,meteohub,2013-06-03 06:37:00,
2013-06-02 23:42:00,50.7,39.4,30.03,NW,315,2.0,2.0,65,0.00,,,0.00,meteohub,2013-06-03 06:42:00,
2013-06-02 23:47:00,50.4,39.4,30.03,SW,225,2.0,2.0,66,0.00,,,0.00,meteohub,2013-06-03 06:47:00,
2013-06-02 23:52:00,50.2,39.2,30.04,SW,225,1.0,2.0,66,0.00,,,0.00,meteohub,2013-06-03 06:52:00,
2013-06-02 23:57:00,49.8,39.7,30.03,SE,135,1.0,2.0,68,0.00,,,0.00,meteohub,2013-06-03 06:57:00,